This is the latest recevied weather packets stored in our database for station/object HB9UQS-13. If no packets are shown the sender has not sent any weather packets the latest 10 day(s).
| Time | Temp. | Humidity | Pressure | Rain* | Wind** | Luminosity | Snow |
|---|---|---|---|---|---|---|---|
| 1777961250 | 8.89° C | 96% | 925.1 hPa | 0 mm | - | 0 W/m² | - |
| 1777959450 | 8.89° C | 97% | 925.2 hPa | 0 mm | - | 0 W/m² | - |
| 1777957650 | 8.89° C | 97% | 925 hPa | 0 mm | - | 0 W/m² | - |
| 1777955850 | 8.89° C | 97% | 925.1 hPa | 0 mm | - | 0 W/m² | - |
| 1777954050 | 8.33° C | 97% | 925.1 hPa | 0 mm | - | 0 W/m² | - |
| 1777952249 | 8.33° C | 97% | 925.2 hPa | 0 mm | - | 0 W/m² | - |
| 1777950451 | 8.33° C | 97% | 925.2 hPa | 0 mm | - | 0 W/m² | - |
| 1777948650 | 8.33° C | 97% | 925.6 hPa | 0 mm | - | 0 W/m² | - |
| 1777946850 | 7.78° C | 97% | 925.6 hPa | 0 mm | - | 0 W/m² | - |
| 1777945050 | 7.78° C | 97% | 925.9 hPa | 0 mm | - | 0 W/m² | - |
| 1777943250 | 7.22° C | 97% | 925.9 hPa | 0 mm | - | 0 W/m² | - |
| 1777941449 | 7.78° C | 97% | 926.4 hPa | 0 mm | - | 0 W/m² | - |
| 1777939650 | 7.22° C | 97% | 926.7 hPa | 0 mm | - | 0 W/m² | - |
| 1777937850 | 7.78° C | 96% | 927 hPa | 0 mm | - | 0 W/m² | - |
| 1777936050 | 6.67° C | 96% | 927.4 hPa | 0 mm | - | 0 W/m² | - |
| 1777934250 | 6.11° C | 95% | 927.5 hPa | 0 mm | - | 0 W/m² | - |
| 1777932450 | 5.56° C | 95% | 927.6 hPa | 0 mm | - | 0 W/m² | - |
| 1777930650 | 5° C | 94% | 927.8 hPa | 0 mm | - | 0 W/m² | - |
| 1777928849 | 6.11° C | 94% | 928 hPa | 0 mm | - | 0 W/m² | - |
| 1777927050 | 7.22° C | 93% | 928.3 hPa | 0 mm | - | 0 W/m² | - |
| 1777925249 | 8.89° C | 92% | 928.3 hPa | 0 mm | - | 0 W/m² | - |
| 1777923450 | 9.44° C | 90% | 928.3 hPa | 0 mm | - | 0 W/m² | - |
| 1777921649 | 10° C | 88% | 928.3 hPa | 0 mm | - | 0 W/m² | - |
| 1777919850 | 10° C | 87% | 928.2 hPa | 0 mm | - | 0 W/m² | - |
| 1777918050 | 10.56° C | 87% | 928.3 hPa | 0 mm | - | 0 W/m² | - |
* Rain latest hour (hover to see other rain measurements)
** Current wind speed in m/s (hover to see current wind gust speed)